Location: �terpigny
(49.8910°N, 2.9249°E)
Time: 20:11:56
(UTC+00:00)

Feng Yun 1-1 Rocket - Visible Passes

Search period start: 25 May 2022 00:00
Search period end: 04 June 2022 00:00
Orbit: 829 x 934 km, 99.2° (Epoch: 24 May)

Date Brightness Start Highest point End Pass type
(mag) Time Alt. Az. Time Alt. Az. Time Alt. Az.
25 May 6.8 20:21:18 10° WSW 20:24:25 15° W 20:27:31 10° NW visible
26 May 6.8 20:18:16 10° SW 20:21:34 16° W 20:24:51 10° NW visible
27 May 6.8 20:15:15 10° SW 20:18:42 17° W 20:22:10 10° NW visible
